Overview Statistics Trail Chart Weather Telemetry Raw packets
 

This is the latest recevied weather packets stored in our database for station/object TB1YZC-13. If no packets are shown the sender has not sent any weather packets the latest 10 day(s).

<< 20 21 22 23 24 25 26 >>
Time Temp. Humidity Pressure Rain* Wind** Luminosity Snow
1788353031 30° C 42% 1018.4 hPa - - - -
1788352428 30° C 45% 1018.5 hPa - - - -
1788351825 30.56° C 41% 1018.5 hPa - - - -
1788351222 30.56° C 44% 1018.6 hPa - - - -
1788350619 30° C 43% 1018.8 hPa - - - -
1788350015 29.44° C 44% 1018.8 hPa - - - -
1788349412 29.44° C 45% 1018.9 hPa - - - -
1788348809 28.89° C 44% 1018.9 hPa - - - -
1788348206 28.89° C 46% 1019 hPa - - - -
1788347603 28.89° C 46% 1019.1 hPa - - - -
1788347000 28.33° C 44% 1019.1 hPa - - - -
1788346397 28.33° C 49% 1019.3 hPa - - - -
1788345793 28.33° C 44% 1019.5 hPa - - - -
1788345190 28.33° C 45% 1019.5 hPa - - - -
1788344587 28.33° C 45% 1019.6 hPa - - - -
1788343984 27.78° C 45% 1019.7 hPa - - - -
1788343380 27.78° C 46% 1019.8 hPa - - - -
1788342777 27.78° C 48% 1019.9 hPa - - - -
1788342174 27.78° C 50% 1020 hPa - - - -
1788341570 28.33° C 49% 1020.1 hPa - - - -
1788340967 27.78° C 49% 1020.1 hPa - - - -
1788340364 27.22° C 50% 1020.1 hPa - - - -
1788339761 27.22° C 50% 1020.2 hPa - - - -
1788339157 27.78° C 52% 1020.2 hPa - - - -
1788338560 27.78° C 52% 1020.2 hPa - - - -

* Rain since midnight (hover to see other rain measurements)
** Current wind speed in m/s (hover to see current wind gust speed)